Location: Gesvres
(49.0440°N, 2.8518°E)
Time: 00:06:54
(UTC+00:00)

Cosmos 468 Rocket - Pass Details

Date: 28 January 2023
Orbit: 744 x 778 km, 74.0° (Epoch: 01 April)

Event Time Altitude Azimuth Distance (km) Brightness Sun altitude
Rises 18:30:22 0° 340° (NNW) 3,233 7.4 -18.2°
Reaches altitude 10° 18:32:53 10° 347° (NNW) 2,298 6.5 -18.6°
Maximum altitude 18:37:50 42° 59° (ENE) 1,067 4.3 -19.5°
Enters shadow 18:38:36 40° 82° (E) 1,112 4.3 -19.6°
